Location: Firdgum
(53.2488°N, 5.5615°E)
Time: 16:11:58
(UTC+00:00)

Cosmos 2227 - Pass Details

Date: 08 December 2019
Orbit: 834 x 862 km, 71.0° (Epoch: 24 January)

Event Time Altitude Azimuth Distance (km) Brightness Sun altitude
Rises 05:39:56 0° 212° (SSW) 3,423 7.2 -16.5°
Reaches altitude 10° 05:42:22 10° 214° (SSW) 2,493 6.5 -16.1°
Maximum altitude 05:48:08 83° 302° (WNW) 876 4.2 -15.3°
Drops below altitude 10° 05:53:56 10° 31° (NNE) 2,513 6.8 -14.5°
Sets 05:56:25 0° 32° (NNE) 3,453 7.6 -14.1°
